sat.trackr.live / text

‹ back to catalog

HJ-2F

NORAD 57519 · 2023-116A

PAYLOAD ACTIVE UNKNOWN

§ Identity

Operator
Country
PRC
Launch date
2023-08-08
Launch site
TAISC
Launch vehicle
Mass (kg)
RCS (m²)

External: N2YO · Heavens-Above · Gunter

§ Orbital elements

Epoch: 2026-05-25T04:16:27.613632Z

Period
94.62 min
Inclination
97.3849°
Eccentricity
0.0010474
Mean motion
15.21938425 rev/d
Perigee alt
492.8 km
Apogee alt
507.2 km
Semi-major
6,878.1 km
B*
2.9831e-4
RAAN
150.8042°
Arg perigee
117.6453°
Mean anomaly
242.5848°
Rev number
15,525

§ Raw data

HJ-2F1 57519U 23116A   26145.17809738  .00006740  00000+0  29831-3 0  99932 57519  97.3849 150.8042 0010474 117.6453 242.5848 15.21938425155253

JSON: /api/v1/satellites/57519 · /tle

For live sub-satellite position, see the globe view (requires WebGL).

§ Visibility from observer

Set your observer location to see the next 7 days of passes ≥ 10°. The values pass through the URL so the page stays shareable.

No JS? Fill the form by hand. The geolocation button needs JavaScript.

§ Radio — SatNOGS DB

ModeDescriptionDownlinkUplink
BPSK S-band telemetry 2.208 GHz

1 transmitter · refreshed weekly from db.satnogs.org